Location: Montbazon
(47.2835°N, 0.6999°E)
Time: 17:22:49
(UTC+00:00)

SL-08 R/B - Pass Details

Date: 08 November 2025
Orbit: 943 x 1007 km, 82.9° (Epoch: 12 December)

Event Time Altitude Azimuth Distance (km) Brightness Sun altitude
Rises 05:17:37 0° 349° (N) 3,624 7.3 -16.1°
Reaches altitude 10° 05:20:07 10° 348° (NNW) 2,678 6.6 -15.6°
Maximum altitude 05:26:12 72° 265° (W) 1,001 4.4 -14.6°
Drops below altitude 10° 05:32:18 10° 182° (S) 2,692 6.9 -13.6°
Sets 05:34:49 0° 180° (S) 3,643 7.6 -13.2°
